EW9394 Weather Reports


time (UTC)temp
C
wind
direction
speed
KPH
gust
KPH
rain 1hr
cm
rain 24hr
cm
rain mn
cm
humidity
%
barometer
mb
20260831010330 34 184 0.0 0.0 0.00 0.00 0.00 42 1013.7
20260831005826 35 182 0.0 1.6 0.00 0.00 0.00 41 1013.6
20260831005322 35 167 3.2 3.2 0.00 0.00 0.00 41 1013.7
20260831004816 35 144 1.6 3.2 0.00 0.00 0.00 40 1013.7
20260831004312 35 169 3.2 4.8 0.00 0.00 0.00 40 1013.4
20260831003807 35 175 1.6 3.2 0.00 0.00 0.00 40 1013.5
20260831003304 35 185 0.0 1.6 0.00 0.00 0.00 40 1013.6
20260831002803 35 181 0.0 0.0 0.00 0.00 0.00 39 1013.7
20260831002305 35 169 1.6 1.6 0.00 0.00 0.00 39 1013.5
20260831001758 35 170 1.6 1.6 0.00 0.00 0.00 39 1013.7
20260831001253 36 177 4.8 8.0 0.00 0.00 0.00 39 1013.6
20260831000745 36 154 3.2 3.2 0.00 0.00 0.00 38 1013.7
20260831000244 36 131 3.2 3.2 0.00 0.00 0.00 38 1013.7
20260830235743 36 126 3.2 3.2 0.00 0.00 0.00 38 1013.9
20260830235238 36 185 3.2 3.2 0.00 0.00 0.00 38 1013.8
20260830234733 36 182 3.2 4.8 0.00 0.00 0.00 37 1013.9
20260830234229 36 124 3.2 4.8 0.00 0.00 0.00 37 1013.8
20260830233724 37 143 3.2 3.2 0.00 0.00 0.00 37 1013.8
20260830233220 37 141 4.8 8.0 0.00 0.00 0.00 37 1013.8
20260830232715 36 220 4.8 11.3 0.00 0.00 0.00 37 1013.7
20260830232211 36 56 1.6 1.6 0.00 0.00 0.00 37 1013.8
20260830231708 36 132 1.6 3.2 0.00 0.00 0.00 38 1013.9
20260830231207 37 92 4.8 8.0 0.00 0.00 0.00 37 1013.9
20260830230702 37 108 3.2 8.0 0.00 0.00 0.00 36 1013.8
20260830230157 37 201 4.8 4.8 0.00 0.00 0.00 34 1013.7
20260830225651 37 200 1.6 3.2 0.00 0.00 0.00 34 1013.7
20260830225146 38 208 6.4 8.0 0.00 0.00 0.00 34 1014.0
20260830224645 37 53 1.6 4.8 0.00 0.00 0.00 36 1014.0
20260830224141 38 128 4.8 4.8 0.00 0.00 0.00 35 1014.0
20260830223638 37 84 1.6 3.2 0.00 0.00 0.00 35 1013.9
20260830223137 37 205 3.2 3.2 0.00 0.00 0.00 35 1014.0
20260830222632 37 142 1.6 3.2 0.00 0.00 0.00 36 1014.1
20260830222128 37 98 4.8 8.0 0.00 0.00 0.00 34 1014.3
20260830221624 38 192 6.4 8.0 0.00 0.00 0.00 34 1014.0
20260830221120 38 202 3.2 4.8 0.00 0.00 0.00 34 1014.1
20260830220615 38 107 1.6 3.2 0.00 0.00 0.00 33 1014.1
20260830220114 38 201 6.4 8.0 0.00 0.00 0.00 34 1014.0
20260830215613 38 204 0.0 1.6 0.00 0.00 0.00 33 1014.1
20260830215108 37 168 4.8 4.8 0.00 0.00 0.00 34 1014.0
20260830214603 37 182 8.0 12.9 0.00 0.00 0.00 34 1014.1
20260830214058 37 209 6.4 8.0 0.00 0.00 0.00 34 1014.4
20260830213557 37 207 0.0 0.0 0.00 0.00 0.00 33 1014.3
20260830213053 37 207 4.8 4.8 0.00 0.00 0.00 34 1014.4
20260830212549 37 176 4.8 8.0 0.00 0.00 0.00 34 1014.7
20260830212048 37 194 3.2 3.2 0.00 0.00 0.00 34 1014.5
20260830211543 36 200 8.0 9.7 0.00 0.00 0.00 35 1014.5
20260830211038 37 214 3.2 4.8 0.00 0.00 0.00 35 1014.6
20260830210533 37 178 8.0 9.7 0.00 0.00 0.00 35 1014.5
20260830210032 37 200 6.4 8.0 0.00 0.00 0.00 35 1014.8
20260830205530 38 179 4.8 4.8 0.00 0.00 0.00 35 1014.7
20260830205026 37 48 4.8 4.8 0.00 0.00 0.00 37 1015.0
20260830204525 37 205 0.0 1.6 0.00 0.00 0.00 36 1014.8
20260830204024 38 86 6.4 9.7 0.00 0.00 0.00 35 1014.8
20260830203520 37 218 3.2 3.2 0.00 0.00 0.00 37 1015.0
20260830203015 37 171 8.0 11.3 0.00 0.00 0.00 37 1015.2
20260830202509 38 175 4.8 8.0 0.00 0.00 0.00 36 1015.1
20260830202006 37 193 1.6 1.6 0.00 0.00 0.00 36 1015.1
20260830201504 38 180 6.4 11.3 0.00 0.00 0.00 34 1015.4
20260830201000 38 258 1.6 1.6 0.00 0.00 0.00 36 1015.3
20260830200500 38 179 8.0 11.3 0.00 0.00 0.00 36 1015.5
20260830195959 37 140 1.6 3.2 0.00 0.00 0.00 37 1015.5
20260830195455 37 126 1.6 1.6 0.00 0.00 0.00 37 1015.9
20260830194953 37 219 3.2 3.2 0.00 0.00 0.00 37 1015.9
20260830194453 38 126 6.4 8.0 0.00 0.00 0.00 35 1015.7
20260830193948 38 200 8.0 9.7 0.00 0.00 0.00 35 1015.7
20260830193446 38 200 3.2 3.2 0.00 0.00 0.00 36 1016.0
20260830192942 37 176 14.5 17.7 0.00 0.00 0.00 38 1015.9
20260830192437 38 236 6.4 9.7 0.00 0.00 0.00 37 1016.2
20260830191932 37 108 4.8 8.0 0.00 0.00 0.00 38 1016.1
20260830191432 37 192 1.6 3.2 0.00 0.00 0.00 39 1016.0
20260830190928 37 107 3.2 4.8 0.00 0.00 0.00 39 1016.2
20260830190423 37 213 4.8 9.7 0.00 0.00 0.00 38 1016.2
20260830185922 37 234 9.7 11.3 0.00 0.00 0.00 38 1016.3
20260830185417 38 204 6.4 8.0 0.00 0.00 0.00 38 1016.3
20260830184913 37 152 3.2 4.8 0.00 0.00 0.00 38 1016.6
20260830184411 37 180 11.3 20.9 0.00 0.00 0.00 38 1016.6
20260830183911 38 213 6.4 9.7 0.00 0.00 0.00 39 1016.7
20260830183406 36 263 3.2 4.8 0.00 0.00 0.00 41 1016.5
20260830182902 36 181 19.3 29.0 0.00 0.00 0.00 39 1016.8
20260830182357 36 164 9.7 12.9 0.00 0.00 0.00 40 1016.7
20260830181853 37 195 6.4 9.7 0.00 0.00 0.00 41 1016.7
20260830181349 37 185 11.3 12.9 0.00 0.00 0.00 40 1016.8
20260830180848 37 94 4.8 4.8 0.00 0.00 0.00 40 1017.1
20260830180343 37 185 6.4 9.7 0.00 0.00 0.00 40 1017.1
20260830175842 37 216 1.6 1.6 0.00 0.00 0.00 41 1016.9
20260830175337 37 208 3.2 4.8 0.00 0.00 0.00 41 1017.2
20260830174832 37 208 3.2 4.8 0.00 0.00 0.00 43 1017.2
20260830174327 37 101 6.4 8.0 0.00 0.00 0.00 42 1017.3
20260830173827 36 194 1.6 3.2 0.00 0.00 0.00 43 1017.3
20260830173323 36 168 8.0 9.7 0.00 0.00 0.00 44 1017.5
20260830172819 35 186 8.0 11.3 0.00 0.00 0.00 44 1017.7
20260830172315 36 204 8.0 11.3 0.00 0.00 0.00 46 1017.6
20260830171811 35 169 8.0 12.9 0.00 0.00 0.00 45 1017.8
20260830171306 35 180 3.2 3.2 0.00 0.00 0.00 47 1017.8
20260830170800 35 216 8.0 9.7 0.00 0.00 0.00 46 1017.7
20260830170300 35 207 6.4 9.7 0.00 0.00 0.00 46 1017.9
20260830165759 35 185 9.7 11.3 0.00 0.00 0.00 47 1017.9
20260830165255 35 178 8.0 9.7 0.00 0.00 0.00 48 1018.0
20260830164751 35 170 6.4 9.7 0.00 0.00 0.00 50 1018.1
20260830164247 35 201 4.8 8.0 0.00 0.00 0.00 49 1018.1
20260830163743 35 289 0.0 1.6 0.00 0.00 0.00 49 1018.2
20260830163238 35 190 6.4 9.7 0.00 0.00 0.00 50 1018.4
20260830162732 34 213 1.6 3.2 0.00 0.00 0.00 52 1018.1
20260830162229 34 182 4.8 8.0 0.00 0.00 0.00 52 1018.3
20260830161719 34 43 3.2 4.8 0.00 0.00 0.00 53 1018.3
20260830161218 33 269 1.6 3.2 0.00 0.00 0.00 53 1018.2
20260830160714 33 152 4.8 11.3 0.00 0.00 0.00 53 1018.3
20260830160209 33 209 4.8 4.8 0.00 0.00 0.00 53 1018.3
20260830155706 33 172 0.0 1.6 0.00 0.00 0.00 53 1018.2
20260830155201 33 149 3.2 3.2 0.00 0.00 0.00 54 1018.2
20260830154656 33 151 6.4 9.7 0.00 0.00 0.00 55 1018.3
20260830154152 32 165 4.8 8.0 0.00 0.00 0.00 55 1017.9
20260830153648 33 205 4.8 4.8 0.00 0.00 0.00 55 1018.1
20260830153148 32 203 3.2 4.8 0.00 0.00 0.00 56 1018.3
20260830152647 33 196 1.6 1.6 0.00 0.00 0.00 56 1018.2
20260830152146 32 194 4.8 4.8 0.00 0.00 0.00 56 1018.2
20260830151642 32 183 3.2 3.2 0.00 0.00 0.00 58 1018.3
20260830151141 31 185 8.0 8.0 0.00 0.00 0.00 59 1018.2
20260830150642 32 203 6.4 11.3 0.00 0.00 0.00 59 1018.2
20260830150136 31 280 3.2 3.2 0.00 0.00 0.00 61 1018.3
20260830145636 31 181 3.2 4.8 0.00 0.00 0.00 60 1017.9
20260830145131 31 154 6.4 8.0 0.00 0.00 0.00 62 1018.3
20260830144626 31 176 8.0 8.0 0.00 0.00 0.00 62 1018.3
20260830144122 31 162 4.8 8.0 0.00 0.00 0.00 63 1018.2
20260830143618 30 188 1.6 1.6 0.00 0.00 0.00 64 1018.3
20260830143116 30 188 0.0 0.0 0.00 0.00 0.00 65 1018.1
20260830142612 30 195 1.6 1.6 0.00 0.00 0.00 66 1018.4
20260830142106 30 157 4.8 4.8 0.00 0.00 0.00 65 1018.6
20260830141601 30 182 1.6 3.2 0.00 0.00 0.00 67 1018.4
20260830141056 30 170 4.8 4.8 0.00 0.00 0.00 67 1018.2
20260830140551 29 192 1.6 1.6 0.00 0.00 0.00 68 1018.2
20260830140047 28 198 1.6 1.6 0.00 0.00 0.00 69 1018.7
20260830135541 28 176 4.8 4.8 0.00 0.00 0.00 70 1018.2
20260830135037 27 197 1.6 1.6 0.00 0.00 0.00 71 1018.2
20260830134533 27 189 4.8 4.8 0.00 0.00 0.00 72 1018.5
20260830134028 27 186 0.0 0.0 0.00 0.00 0.00 72 1018.3
20260830133523 27 182 4.8 4.8 0.00 0.00 0.00 72 1018.2
20260830133018 27 177 1.6 1.6 0.00 0.00 0.00 73 1018.2
20260830132514 27 161 1.6 1.6 0.00 0.00 0.00 74 1018.3
20260830132014 26 195 3.2 3.2 0.00 0.00 0.00 74 1018.0
20260830131513 26 187 3.2 3.2 0.00 0.00 0.00 74 1018.1
20260830131008 26 168 1.6 1.6 0.00 0.00 0.00 74 1018.0
20260830130503 26 164 1.6 1.6 0.00 0.00 0.00 74 1018.0
20260830130003 26 179 1.6 1.6 0.00 0.00 0.00 74 1017.9
20260830125458 26 201 0.0 1.6 0.00 0.00 0.00 74 1017.7
20260830124956 26 190 0.0 1.6 0.00 0.00 0.00 74 1017.7
20260830124451 26 198 0.0 1.6 0.00 0.00 0.00 74 1017.6
20260830123947 26 193 0.0 1.6 0.00 0.00 0.00 74 1017.4
20260830123444 25 190 0.0 0.0 0.00 0.00 0.00 74 1017.7
20260830122942 25 193 0.0 0.0 0.00 0.00 0.00 74 1017.5
20260830122441 25 199 0.0 1.6 0.00 0.00 0.00 74 1017.5
20260830121936 25 189 0.0 0.0 0.00 0.00 0.00 74 1017.6
20260830121431 25 196 0.0 1.6 0.00 0.00 0.00 73 1017.6
20260830120926 25 177 0.0 1.6 0.00 0.00 0.00 73 1017.6
20260830120422 25 192 0.0 0.0 0.00 0.00 0.00 73 1017.1
20260830115918 25 195 0.0 0.0 0.00 0.00 0.00 72 1017.3
20260830115414 25 195 0.0 0.0 0.00 0.00 0.00 72 1017.2
20260830114909 25 197 0.0 0.0 0.00 0.00 0.00 71 1017.2
20260830114406 26 189 0.0 0.0 0.00 0.00 0.00 71 1016.9
20260830113905 26 194 0.0 1.6 0.00 0.00 0.00 71 1016.6
20260830113400 26 198 0.0 0.0 0.00 0.00 0.00 70 1016.9
20260830112856 26 196 0.0 0.0 0.00 0.00 0.00 70 1016.8
20260830112352 26 200 0.0 1.6 0.00 0.00 0.00 70 1016.6
20260830111848 26 185 0.0 1.6 0.00 0.00 0.00 69 1016.7
20260830111343 26 193 0.0 1.6 0.00 0.00 0.00 69 1016.6
20260830110843 26 191 0.0 1.6 0.00 0.00 0.00 68 1016.5
20260830110340 26 194 1.6 1.6 0.00 0.00 0.00 68 1016.6
20260830105838 26 187 1.6 1.6 0.00 0.00 0.00 67 1016.6
20260830105335 26 168 0.0 1.6 0.00 0.00 0.00 67 1016.2
20260830104831 26 198 0.0 1.6 0.00 0.00 0.00 66 1016.3
20260830104328 26 186 1.6 1.6 0.00 0.00 0.00 66 1016.4
20260830103826 26 195 1.6 1.6 0.00 0.00 0.00 65 1016.6
20260830103323 26 192 0.0 0.0 0.00 0.00 0.00 65 1016.5
20260830102820 26 193 1.6 1.6 0.00 0.00 0.00 64 1016.5
20260830102316 26 191 3.2 4.8 0.00 0.00 0.00 64 1016.4
20260830101812 26 181 1.6 3.2 0.00 0.00 0.00 64 1016.3
20260830101308 26 196 1.6 1.6 0.00 0.00 0.00 64 1016.5
20260830100807 26 191 0.0 1.6 0.00 0.00 0.00 63 1016.2
20260830100301 26 194 0.0 0.0 0.00 0.00 0.00 63 1016.3
20260830095800 27 194 0.0 0.0 0.00 0.00 0.00 63 1016.1
20260830095256 27 173 0.0 0.0 0.00 0.00 0.00 62 1016.3
20260830094752 27 187 0.0 0.0 0.00 0.00 0.00 62 1016.5
20260830094248 27 183 3.2 3.2 0.00 0.00 0.00 61 1016.5
20260830093743 27 188 1.6 1.6 0.00 0.00 0.00 61 1016.4
20260830093239 27 196 3.2 4.8 0.00 0.00 0.00 61 1016.2
20260830092738 27 184 1.6 1.6 0.00 0.00 0.00 60 1016.3
20260830092235 27 197 0.0 1.6 0.00 0.00 0.00 60 1016.3
20260830091731 27 194 0.0 0.0 0.00 0.00 0.00 60 1016.2
20260830091231 27 188 0.0 1.6 0.00 0.00 0.00 59 1016.6
20260830090730 27 182 3.2 3.2 0.00 0.00 0.00 58 1016.3
20260830090226 27 194 1.6 3.2 0.00 0.00 0.00 58 1016.2
20260830085725 28 174 3.2 3.2 0.00 0.00 0.00 57 1016.3
20260830085221 28 170 0.0 1.6 0.00 0.00 0.00 57 1016.3
20260830084716 28 183 0.0 0.0 0.00 0.00 0.00 57 1016.3
20260830084211 28 173 0.0 1.6 0.00 0.00 0.00 56 1016.4
20260830083706 28 189 1.6 1.6 0.00 0.00 0.00 56 1016.5
20260830083202 28 179 1.6 1.6 0.00 0.00 0.00 56 1016.4
20260830082701 28 205 1.6 1.6 0.00 0.00 0.00 56 1016.4
20260830082157 28 148 1.6 1.6 0.00 0.00 0.00 56 1016.5
20260830081653 28 190 0.0 0.0 0.00 0.00 0.00 57 1016.4
20260830081152 28 175 3.2 3.2 0.00 0.00 0.00 56 1016.3
20260830080647 28 192 1.6 1.6 0.00 0.00 0.00 55 1016.1
20260830080142 28 173 1.6 1.6 0.00 0.00 0.00 55 1016.1
20260830075636 28 160 1.6 1.6 0.00 0.00 0.00 54 1016.1
20260830075131 28 156 3.2 3.2 0.00 0.00 0.00 54 1016.3
20260830074627 28 182 1.6 1.6 0.00 0.00 0.00 54 1016.3
20260830074123 28 150 0.0 1.6 0.00 0.00 0.00 54 1016.2
20260830073619 28 168 0.0 1.6 0.00 0.00 0.00 54 1016.4
20260830073114 29 193 0.0 0.0 0.00 0.00 0.00 53 1016.4
20260830072609 29 181 0.0 1.6 0.00 0.00 0.00 53 1016.3
20260830072109 29 183 0.0 0.0 0.00 0.00 0.00 53 1016.3
20260830071605 29 187 1.6 1.6 0.00 0.00 0.00 54 1016.4
20260830071102 29 173 0.0 1.6 0.00 0.00 0.00 54 1016.6
20260830070557 29 144 3.2 3.2 0.00 0.00 0.00 54 1016.4
20260830070052 30 162 1.6 1.6 0.00 0.00 0.00 53 1016.4
20260830065551 30 148 1.6 1.6 0.00 0.00 0.00 53 1016.5
20260830065044 30 108 1.6 3.2 0.00 0.00 0.00 52 1016.6
20260830064544 30 139 3.2 4.8 0.00 0.00 0.00 52 1016.5
20260830064040 30 174 3.2 3.2 0.00 0.00 0.00 52 1016.3
20260830063539 30 142 3.2 3.2 0.00 0.00 0.00 52 1016.4
20260830063039 30 160 1.6 1.6 0.00 0.00 0.00 52 1016.4
20260830062538 30 157 3.2 3.2 0.00 0.00 0.00 51 1016.6
20260830062034 30 216 3.2 3.2 0.00 0.00 0.00 51 1016.4
20260830061528 30 198 1.6 1.6 0.00 0.00 0.00 51 1016.4
20260830061024 30 167 0.0 0.0 0.00 0.00 0.00 52 1016.3
20260830060520 30 182 0.0 1.6 0.00 0.00 0.00 52 1016.4
20260830060017 30 151 0.0 1.6 0.00 0.00 0.00 51 1016.4
20260830055512 30 102 3.2 3.2 0.00 0.00 0.00 51 1016.3
20260830055008 30 68 1.6 1.6 0.00 0.00 0.00 51 1016.5
20260830054503 30 120 4.8 4.8 0.00 0.00 0.00 51 1016.5
20260830053959 30 142 0.0 0.0 0.00 0.00 0.00 52 1016.3
20260830053454 30 152 0.0 1.6 0.00 0.00 0.00 52 1016.4
20260830052952 30 118 1.6 1.6 0.00 0.00 0.00 53 1016.4
20260830052448 31 73 1.6 1.6 0.00 0.00 0.00 50 1016.5
20260830051943 31 111 1.6 1.6 0.00 0.00 0.00 47 1016.3
20260830051438 31 188 1.6 1.6 0.00 0.00 0.00 46 1016.0
20260830050938 31 191 0.0 1.6 0.00 0.00 0.00 46 1016.1
20260830050433 31 189 1.6 3.2 0.00 0.00 0.00 47 1016.2
20260830045931 31 180 1.6 1.6 0.00 0.00 0.00 47 1016.0
20260830045427 31 192 1.6 1.6 0.00 0.00 0.00 47 1016.2
20260830044925 31 195 0.0 0.0 0.00 0.00 0.00 47 1016.1
20260830044422 31 193 0.0 0.0 0.00 0.00 0.00 46 1016.1
20260830043916 31 194 0.0 0.0 0.00 0.00 0.00 46 1016.1
20260830043411 31 186 1.6 3.2 0.00 0.00 0.00 46 1016.0
20260830042908 31 195 0.0 0.0 0.00 0.00 0.00 46 1016.1
20260830042358 31 190 0.0 1.6 0.00 0.00 0.00 46 1016.2
20260830041857 32 194 0.0 0.0 0.00 0.00 0.00 45 1016.2
20260830041356 32 185 1.6 1.6 0.00 0.00 0.00 45 1016.1
20260830040852 32 167 1.6 1.6 0.00 0.00 0.00 45 1016.1
20260830040348 32 190 4.8 9.7 0.00 0.00 0.00 45 1016.0
20260830035847 32 185 1.6 1.6 0.00 0.00 0.00 44 1016.0
20260830035345 32 210 1.6 1.6 0.00 0.00 0.00 44 1016.0
20260830034841 32 196 0.0 1.6 0.00 0.00 0.00 44 1015.9
20260830034336 32 179 1.6 3.2 0.00 0.00 0.00 44 1015.9
20260830033831 32 179 3.2 3.2 0.00 0.00 0.00 44 1015.8
20260830033331 32 182 3.2 4.8 0.00 0.00 0.00 44 1015.8
20260830032827 32 186 0.0 1.6 0.00 0.00 0.00 44 1016.0
20260830032321 32 162 1.6 1.6 0.00 0.00 0.00 44 1016.0
20260830031816 32 179 0.0 1.6 0.00 0.00 0.00 43 1015.7
20260830031311 32 193 1.6 1.6 0.00 0.00 0.00 43 1015.9
20260830030807 32 210 1.6 3.2 0.00 0.00 0.00 43 1015.6
20260830030303 32 186 0.0 1.6 0.00 0.00 0.00 42 1015.8
20260830025802 33 130 3.2 4.8 0.00 0.00 0.00 42 1015.6
20260830025301 33 187 1.6 1.6 0.00 0.00 0.00 42 1015.5
20260830024801 33 168 0.0 0.0 0.00 0.00 0.00 41 1015.6
20260830024256 33 171 1.6 3.2 0.00 0.00 0.00 42 1015.5
20260830023753 33 195 0.0 1.6 0.00 0.00 0.00 41 1015.6
20260830023253 33 190 0.0 0.0 0.00 0.00 0.00 41 1015.4
20260830022752 33 189 1.6 1.6 0.00 0.00 0.00 41 1015.4
20260830022247 33 186 1.6 1.6 0.00 0.00 0.00 41 1015.2
20260830021742 33 192 1.6 3.2 0.00 0.00 0.00 41 1015.1
20260830021237 33 201 0.0 1.6 0.00 0.00 0.00 40 1015.1
20260830020736 33 205 1.6 1.6 0.00 0.00 0.00 40 1015.0
20260830020231 33 201 1.6 1.6 0.00 0.00 0.00 40 1015.3
20260830015731 33 185 1.6 1.6 0.00 0.00 0.00 40 1015.1
20260830015227 33 192 1.6 3.2 0.00 0.00 0.00 40 1015.0
20260830014722 33 210 0.0 1.6 0.00 0.00 0.00 39 1015.1
20260830014218 33 176 0.0 0.0 0.00 0.00 0.00 39 1014.8
20260830013713 34 200 0.0 0.0 0.00 0.00 0.00 39 1015.0
20260830013208 34 187 1.6 1.6 0.00 0.00 0.00 39 1014.7
20260830012703 34 182 1.6 1.6 0.00 0.00 0.00 39 1015.0
20260830012159 34 175 1.6 3.2 0.00 0.00 0.00 39 1014.7
20260830011654 35 194 0.0 0.0 0.00 0.00 0.00 39 1014.6
20260830011149 35 195 1.6 1.6 0.00 0.00 0.00 38 1014.6
20260830010645 35 197 1.6 1.6 0.00 0.00 0.00 39 1014.5